Total_Precipitation_Accumulation
0.54 0.62 1.09 1.65 1.70 0.86 0.45 0.36 0.23 0.22 0.24 0.14 0.07 0.06 0.16 0.37 0.57 0.76 0.51 0.43 0.31 0.29 0.28 0.43 0.57 0.58 0.55 0.52 0.48 0.48 0.43 0.35 0.33 0.34 0.31 0.26 0.24 0.23 0.20 0.18 0.13 0.10 0.09 0.11 0.19 0.26 0.25 0.26 0.36
0.41 0.81 1.41 1.98 1.42 0.59 0.44 0.34 0.31 0.24 0.16 0.10 0.06 0.04 0.10 0.11 0.10 0.27 0.51 0.54 0.38 0.32 0.34 0.44 0.65 0.69 0.66 0.60 0.59 0.69 0.61 0.48 0.42 0.40 0.37 0.29 0.25 0.27 0.32 0.31 0.18 0.12 0.10 0.10 0.18 0.26 0.24 0.27 0.36
0.60 1.24 1.77 1.73 0.89 0.51 0.46 0.42 0.36 0.24 0.14 0.10 0.08 0.06 0.09 0.14 0.20 0.42 0.61 0.53 0.44 0.36 0.38 0.61 0.76 0.70 0.67 0.69 0.81 0.95 0.84 0.72 0.60 0.48 0.41 0.37 0.36 0.36 0.40 0.33 0.26 0.19 0.16 0.14 0.20 0.26 0.25 0.25 0.27
0.80 1.49 1.79 1.37 0.77 0.50 0.45 0.43 0.35 0.25 0.13 0.05 0.06 0.09 0.07 0.12 0.26 0.45 0.54 0.45 0.41 0.41 0.42 0.56 0.70 0.70 0.72 0.79 0.89 0.96 0.97 0.97 0.77 0.60 0.54 0.53 0.50 0.49 0.48 0.44 0.33 0.28 0.25 0.22 0.23 0.25 0.30 0.29 0.28
1.03 1.47 1.48 1.23 0.86 0.61 0.54 0.44 0.35 0.28 0.16 0.07 0.07 0.15 0.13 0.16 0.28 0.45 0.54 0.45 0.39 0.38 0.39 0.45 0.63 0.65 0.69 0.78 0.87 0.89 0.98 1.05 0.90 0.66 0.66 0.68 0.60 0.59 0.59 0.56 0.43 0.36 0.32 0.29 0.31 0.29 0.30 0.31 0.31
1.11 1.32 1.36 1.24 0.94 0.70 0.67 0.45 0.32 0.26 0.17 0.13 0.12 0.19 0.18 0.24 0.38 0.55 0.61 0.68 0.61 0.50 0.46 0.48 0.59 0.63 0.67 0.75 0.87 0.82 0.89 1.00 0.93 0.79 0.72 0.66 0.65 0.67 0.68 0.61 0.51 0.44 0.40 0.38 0.39 0.38 0.34 0.32 0.32
1.00 1.07 1.13 0.84 0.75 0.82 0.70 0.39 0.31 0.29 0.27 0.24 0.16 0.23 0.24 0.26 0.34 0.50 0.60 0.71 0.86 0.89 0.77 0.60 0.52 0.53 0.60 0.72 0.85 0.89 0.90 0.93 0.90 0.91 0.81 0.75 0.72 0.69 0.65 0.61 0.56 0.52 0.50 0.47 0.44 0.40 0.35 0.32 0.31
0.69 0.69 0.77 0.79 0.78 0.81 0.56 0.29 0.19 0.19 0.20 0.18 0.22 0.28 0.29 0.28 0.32 0.43 0.63 0.85 0.91 0.96 0.91 0.79 0.70 0.67 0.67 0.65 0.81 1.02 1.10 1.07 0.98 0.94 0.90 0.88 0.80 0.72 0.68 0.60 0.57 0.57 0.56 0.56 0.53 0.48 0.41 0.35 0.31
0.58 0.63 0.81 1.00 0.94 0.70 0.39 0.26 0.17 0.15 0.13 0.14 0.16 0.18 0.20 0.24 0.34 0.45 0.56 0.65 0.75 0.77 0.79 0.81 0.84 0.87 0.93 0.93 0.92 1.14 1.22 1.15 0.96 0.86 0.90 0.90 0.76 0.77 0.75 0.63 0.73 0.68 0.69 0.69 0.65 0.58 0.51 0.41 0.32
0.63 0.71 0.80 0.74 0.57 0.40 0.31 0.26 0.21 0.22 0.19 0.15 0.17 0.19 0.18 0.23 0.34 0.42 0.48 0.52 0.56 0.63 0.64 0.65 0.69 0.77 0.89 0.97 1.30 1.50 1.30 1.19 0.92 0.91 0.81 0.86 0.93 1.01 0.82 0.74 0.88 0.88 0.89 0.83 0.77 0.74 0.61 0.45 0.31
0.57 0.65 0.50 0.44 0.40 0.26 0.23 0.22 0.20 0.21 0.22 0.16 0.17 0.18 0.20 0.25 0.33 0.39 0.42 0.43 0.47 0.49 0.48 0.48 0.47 0.49 0.58 0.78 1.12 1.41 1.52 1.48 1.39 1.15 0.93 0.94 0.82 0.71 0.65 0.65 0.74 0.81 0.86 0.78 0.76 0.70 0.55 0.45 0.37
0.55 0.40 0.30 0.32 0.26 0.23 0.21 0.17 0.16 0.15 0.15 0.13 0.16 0.18 0.21 0.25 0.29 0.32 0.38 0.41 0.45 0.47 0.48 0.45 0.44 0.41 0.43 0.52 0.69 0.89 1.03 1.12 1.14 0.99 0.87 0.95 0.84 0.73 0.74 0.72 0.71 0.70 0.75 0.82 0.82 0.71 0.59 0.49 0.39
0.53 0.43 0.24 0.19 0.19 0.19 0.17 0.16 0.14 0.12 0.14 0.14 0.18 0.25 0.32 0.35 0.34 0.35 0.39 0.42 0.46 0.52 0.59 0.56 0.47 0.44 0.43 0.47 0.54 0.62 0.77 0.86 0.89 0.91 0.86 0.89 0.89 0.86 0.83 0.75 0.74 0.67 0.72 0.79 0.82 0.73 0.63 0.58 0.50
0.39 0.36 0.29 0.21 0.19 0.16 0.16 0.16 0.14 0.13 0.15 0.17 0.22 0.31 0.39 0.46 0.46 0.47 0.48 0.49 0.49 0.53 0.60 0.65 0.57 0.52 0.48 0.46 0.49 0.54 0.64 0.72 0.76 0.75 0.75 0.85 0.93 0.92 0.88 0.82 0.83 0.80 0.80 0.90 0.86 0.73 0.68 0.62 0.53
0.31 0.31 0.28 0.24 0.25 0.26 0.22 0.19 0.15 0.15 0.18 0.22 0.26 0.31 0.38 0.46 0.51 0.54 0.53 0.51 0.51 0.53 0.56 0.59 0.60 0.60 0.59 0.57 0.56 0.56 0.63 0.73 0.74 0.72 0.67 0.69 0.78 0.83 0.85 0.84 0.84 0.88 0.96 1.00 1.01 0.81 0.74 0.60 0.51
0.36 0.38 0.42 0.34 0.36 0.36 0.32 0.25 0.16 0.17 0.19 0.22 0.25 0.28 0.33 0.37 0.42 0.48 0.50 0.47 0.47 0.46 0.47 0.52 0.54 0.59 0.65 0.68 0.69 0.71 0.71 0.78 0.75 0.74 0.68 0.63 0.68 0.75 0.88 0.88 0.85 0.88 0.99 1.06 1.09 0.96 0.84 0.69 0.58
0.37 0.37 0.37 0.33 0.27 0.28 0.27 0.22 0.18 0.20 0.20 0.21 0.23 0.22 0.23 0.26 0.31 0.36 0.39 0.41 0.42 0.41 0.41 0.44 0.48 0.51 0.62 0.70 0.73 0.82 0.84 0.86 0.83 0.82 0.73 0.71 0.76 0.82 0.97 1.06 1.06 1.07 1.07 1.04 0.99 1.00 0.93 0.79 0.70
0.35 0.25 0.21 0.20 0.14 0.13 0.15 0.15 0.16 0.17 0.16 0.16 0.16 0.17 0.18 0.18 0.22 0.27 0.28 0.29 0.30 0.32 0.34 0.38 0.43 0.45 0.53 0.68 0.80 0.96 1.07 1.04 1.06 1.00 0.88 0.91 1.04 1.17 1.29 1.28 1.35 1.40 1.25 1.18 1.10 1.09 1.03 0.89 0.84
0.22 0.14 0.11 0.11 0.12 0.12 0.12 0.12 0.14 0.14 0.13 0.12 0.12 0.12 0.13 0.12 0.13 0.15 0.19 0.22 0.22 0.22 0.25 0.31 0.34 0.42 0.50 0.58 0.73 0.95 1.22 1.33 1.42 1.38 1.21 1.16 1.28 1.51 1.70 1.65 1.67 1.66 1.50 1.44 1.51 1.65 1.58 1.29 1.03
0.21 0.15 0.11 0.08 0.08 0.08 0.08 0.09 0.09 0.11 0.13 0.12 0.11 0.11 0.10 0.09 0.07 0.07 0.10 0.13 0.15 0.15 0.17 0.22 0.30 0.39 0.48 0.57 0.75 0.91 1.06 1.07 1.24 1.40 1.38 1.29 1.28 1.42 1.55 1.78 1.83 1.73 1.71 1.81 1.85 2.11 2.20 1.79 1.39
0.17 0.15 0.14 0.13 0.09 0.06 0.07 0.09 0.08 0.09 0.11 0.11 0.12 0.11 0.10 0.08 0.06 0.06 0.06 0.08 0.09 0.10 0.12 0.15 0.22 0.32 0.45 0.61 0.85 1.07 1.26 1.34 1.41 1.34 1.42 1.43 1.35 1.38 1.46 1.61 1.75 1.74 1.78 1.83 1.93 2.23 2.62 2.35 1.89
0.14 0.09 0.09 0.12 0.15 0.15 0.16 0.20 0.14 0.15 0.19 0.18 0.18 0.15 0.14 0.12 0.09 0.06 0.06 0.07 0.07 0.08 0.09 0.12 0.20 0.35 0.56 0.78 1.04 1.30 1.50 1.54 1.43 1.47 1.50 1.38 1.30 1.27 1.33 1.46 1.59 1.68 1.69 1.79 1.85 1.95 2.38 2.65 2.36
0.10 0.06 0.06 0.09 0.13 0.11 0.10 0.17 0.16 0.22 0.30 0.32 0.30 0.26 0.20 0.16 0.13 0.12 0.11 0.12 0.13 0.14 0.16 0.23 0.43 0.68 0.93 1.14 1.41 1.70 1.70 1.59 1.50 1.50 1.46 1.40 1.40 1.38 1.37 1.50 1.56 1.55 1.60 1.69 1.96 2.18 2.42 2.56 2.49
0.09 0.07 0.07 0.09 0.12 0.08 0.06 0.13 0.24 0.28 0.33 0.37 0.36 0.30 0.23 0.19 0.22 0.27 0.31 0.37 0.41 0.44 0.58 0.79 1.05 1.24 1.33 1.46 1.61 1.73 1.71 1.72 1.66 1.48 1.39 1.38 1.42 1.48 1.53 1.58 1.55 1.51 1.54 1.63 1.81 2.04 2.26 2.52 2.65
0.06 0.07 0.11 0.13 0.14 0.12 0.12 0.27 0.38 0.34 0.29 0.29 0.30 0.25 0.20 0.24 0.33 0.45 0.61 0.74 0.84 0.96 1.08 1.22 1.42 1.56 1.50 1.47 1.52 1.56 1.57 1.57 1.56 1.50 1.40 1.34 1.35 1.37 1.40 1.51 1.62 1.68 1.69 1.77 1.91 2.01 1.93 2.14 2.48
0.04 0.08 0.19 0.23 0.21 0.23 0.27 0.47 0.52 0.41 0.31 0.22 0.17 0.16 0.24 0.38 0.52 0.63 0.72 0.83 1.00 1.14 1.19 1.19 1.30 1.40 1.36 1.33 1.31 1.28 1.34 1.37 1.34 1.26 1.25 1.28 1.35 1.32 1.26 1.30 1.41 1.54 1.69 1.71 1.74 1.72 1.66 1.79 2.00
0.05 0.07 0.14 0.27 0.23 0.23 0.35 0.61 0.57 0.37 0.31 0.25 0.22 0.25 0.38 0.58 0.79 0.94 1.04 1.17 1.21 1.25 1.30 1.22 1.21 1.25 1.25 1.17 1.09 1.09 1.15 1.20 1.23 1.18 1.19 1.17 1.16 1.08 1.01 1.01 1.05 1.12 1.19 1.24 1.39 1.47 1.54 1.57 1.68
0.09 0.16 0.25 0.42 0.46 0.45 0.54 0.65 0.58 0.46 0.43 0.45 0.52 0.61 0.67 0.78 1.03 1.32 1.57 1.74 1.57 1.30 1.18 1.13 1.06 1.06 1.14 1.11 1.04 1.01 1.10 1.11 1.10 1.13 1.10 1.10 1.09 1.00 0.93 0.89 0.84 0.80 0.77 0.80 0.98 1.17 1.27 1.37 1.50
0.15 0.26 0.34 0.46 0.56 0.70 0.88 0.97 0.83 0.86 0.88 0.95 1.06 1.10 1.10 1.21 1.19 1.34 1.53 1.70 1.60 1.28 1.05 1.05 1.06 1.01 0.99 0.99 1.01 1.00 0.99 0.90 0.89 0.94 0.95 0.94 0.95 0.98 0.96 0.88 0.82 0.88 0.86 0.81 0.86 0.92 0.98 1.06 1.18
0.27 0.38 0.52 0.69 0.63 0.69 0.89 1.06 0.95 0.94 0.96 1.05 1.23 1.30 1.29 1.20 1.10 1.09 1.13 1.20 1.21 1.06 0.87 0.83 0.96 1.01 0.95 0.92 0.95 0.94 0.85 0.81 0.77 0.76 0.73 0.66 0.64 0.67 0.75 0.83 0.78 0.77 0.79 0.79 0.84 0.86 0.90 0.92 0.99